Weather in Lymington

United Kingdom     50°45′42″N   1°32′32″W
temp.,
°C
wind,
m/s
gust,
m/s
humid.,
%
clouds,
%
prec.,
mm/h
press.,
hPa
HPBL,
m
24 january, mon
mon2400:00+6ese3577100 0.1 1032392
03:00+6ese3479100 0.0 1032342
06:00+6e3478100 0.1 1031327
09:00+6e3576100 0.0 1032410
12:00+7e347294 0.0 1033791
15:00+7e347335 0.0 1032698
18:00+4ene34871 0.0 1033142
21:00+4ne34910 0.0 1034115
25 january, tue
tue2500:00+3ne33910 0.0 103488
03:00+2ne23901 0.0 103478
06:00+2ne22900 0.0 103474
09:00+2nne22861 0.0 103582
12:00+6nne11720 0.0 1035287
15:00+7nnw01700 0.0 1034364
18:00+4nnw11810 0.0 103466
21:00+3nnw22870 0.0 103569
26 january, wed
wed2600:00+2nnw22870 0.0 103561
03:00+1n22860 0.0 103563
06:00+1n33883 0.0 103679
09:00+2nnw22820 0.0 103685
12:00+6nw12665 0.0 1036282
15:00+7wsw23700 0.0 1034272
18:00+4w22840 0.0 1034107
21:00+3w33880 0.0 103482
27 january, thu
thu2700:00+3w35895 0.0 1033128
03:00+3wnw49895 0.0 1032197
06:00+3w51093100 0.0 1031254
09:00+5w51191100 0.0 1032327
12:00+8wnw51285100 0.0 1031495
15:00+10nnw5989100 0.0 1032561
18:00+6nnw36930 0.0 1033213
21:00+4nnw36884 0.0 1036139
28 january, fri
fri2800:00+3n36860 0.0 1037132
03:00+3nnw348699 0.0 103887
06:00+3nw34909 0.0 103889
09:00+4nnw2385100 0.0 103982
12:00+7nnw34715 0.0 1040336
15:00+8wnw126923 0.0 1038480
18:00+5w45865 0.0 1038195
21:00+4wnw3591100 0.0 1039133